This is the latest recevied weather packets stored in our database for station/object KQ7A. If no packets are shown the sender has not sent any weather packets the latest 10 day(s).
| Time | Temp. | Humidity | Pressure | Rain* | Wind** | Luminosity | Snow |
|---|---|---|---|---|---|---|---|
| 1778099572 | 21.67° C | 37% | 1022 hPa | 0 mm | - | 753 W/m² | - |
| 1778099268 | 22.22° C | 33% | 1022.1 hPa | 0 mm | - | 757 W/m² | - |
| 1778098965 | 22.22° C | 35% | 1022.1 hPa | 0 mm | - | 758 W/m² | - |
| 1778098662 | 21.67° C | 33% | 1022.1 hPa | 0 mm | - | 756 W/m² | - |
| 1778098359 | 21.67° C | 38% | 1022.4 hPa | 0 mm | - | 754 W/m² | - |
| 1778098056 | 22.22° C | 35% | 1022 hPa | 0 mm | - | 755 W/m² | - |
| 1778097752 | 22.22° C | 34% | 1022.2 hPa | 0 mm | - | 747 W/m² | - |
| 1778097448 | 22.22° C | 38% | 1022.3 hPa | 0 mm | - | 749 W/m² | - |
| 1778097145 | 21.67° C | 35% | 1022.2 hPa | 0 mm | - | 757 W/m² | - |
| 1778096843 | 21.11° C | 36% | 1022.1 hPa | 0 mm | - | 771 W/m² | - |
| 1778096539 | 21.11° C | 48% | 1022.3 hPa | 0 mm | - | 782 W/m² | - |
| 1778096237 | 20.56° C | 36% | 1022.6 hPa | 0 mm | - | 785 W/m² | - |
| 1778095934 | 20.56° C | 38% | 1022.4 hPa | 0 mm | - | 784 W/m² | - |
| 1778095629 | 20.56° C | 35% | 1022.2 hPa | 0 mm | - | 783 W/m² | - |
| 1778095326 | 21.11° C | 34% | 1022.6 hPa | 0 mm | - | 798 W/m² | - |
| 1778095018 | 21.11° C | 41% | 1022.4 hPa | 0 mm | - | 808 W/m² | - |
| 1778094714 | 20.56° C | 44% | 1022.3 hPa | 0 mm | - | 811 W/m² | - |
| 1778094411 | 20.56° C | 38% | 1022.6 hPa | 0 mm | - | 816 W/m² | - |
| 1778094108 | 20.56° C | 43% | 1022.6 hPa | 0 mm | - | 825 W/m² | - |
| 1778093805 | 20.56° C | 44% | 1022.4 hPa | 0 mm | - | 839 W/m² | - |
| 1778093501 | 20.56° C | 42% | 1022.7 hPa | 0 mm | - | 849 W/m² | - |
| 1778093199 | 20° C | 40% | 1022.7 hPa | 0 mm | - | 851 W/m² | - |
| 1778092896 | 20° C | 40% | 1022.6 hPa | 0 mm | - | 860 W/m² | - |
| 1778092592 | 20° C | 47% | 1022.8 hPa | 0 mm | - | 870 W/m² | - |
| 1778092288 | 20° C | 46% | 1022.8 hPa | 0 mm | - | 874 W/m² | - |
* Rain latest hour (hover to see other rain measurements)
** Current wind speed in m/s (hover to see current wind gust speed)